| time (UTC) | temp C | wind direction | speed KPH | gust KPH | rain 1hr cm | rain 24hr cm | rain mn cm | humidity % | barometer mb |
| 20260507065007 | 22 | 188 | 8.0 | 19.3 | 0.00 | 0.00 | 0.00 | 87 | 1012.8 |
| 20260507064516 | 22 | 134 | 6.4 | 16.1 | 0.00 | 0.00 | 0.00 | 88 | 1012.9 |
| 20260507064004 | 22 | 165 | 6.4 | 16.1 | 0.00 | 0.00 | 0.00 | 87 | 1013.1 |
| 20260507063503 | 22 | 178 | 4.8 | 20.9 | 0.00 | 0.00 | 0.00 | 88 | 1013.1 |
| 20260507063009 | 22 | 172 | 8.0 | 20.9 | 0.00 | 0.00 | 0.00 | 88 | 1013.2 |
| 20260507062504 | 22 | 184 | 6.4 | 17.7 | 0.00 | 0.00 | 0.00 | 88 | 1013.4 |
| 20260507062004 | 22 | 234 | 8.0 | 14.5 | 0.00 | 0.00 | 0.00 | 88 | 1013.4 |
| 20260507061514 | 22 | 199 | 6.4 | 12.9 | 0.00 | 0.00 | 0.00 | 88 | 1013.4 |
| 20260507061003 | 22 | 226 | 6.4 | 14.5 | 0.00 | 0.00 | 0.00 | 88 | 1013.4 |
| 20260507060504 | 22 | 201 | 6.4 | 14.5 | 0.00 | 0.00 | 0.00 | 88 | 1013.5 |
| 20260507060009 | 22 | 194 | 6.4 | 14.5 | 0.00 | 0.00 | 0.00 | 88 | 1013.5 |
| 20260507055504 | 22 | 219 | 6.4 | 14.5 | 0.00 | 0.00 | 0.00 | 88 | 1013.6 |
| 20260507055004 | 22 | 186 | 8.0 | 12.9 | 0.00 | 0.00 | 0.00 | 88 | 1013.8 |
| 20260507054515 | 22 | 159 | 4.8 | 12.9 | 0.00 | 0.00 | 0.00 | 88 | 1013.8 |
| 20260507054004 | 22 | 169 | 6.4 | 12.9 | 0.00 | 0.00 | 0.00 | 88 | 1013.8 |
| 20260507053504 | 22 | 116 | 6.4 | 14.5 | 0.00 | 0.00 | 0.00 | 88 | 1014.0 |
| 20260507053016 | 22 | 194 | 6.4 | 14.5 | 0.00 | 0.00 | 0.00 | 89 | 1014.3 |
| 20260507052503 | 22 | 211 | 6.4 | 14.5 | 0.00 | 0.00 | 0.00 | 89 | 1014.3 |
| 20260507052005 | 22 | 151 | 6.4 | 14.5 | 0.00 | 0.00 | 0.00 | 89 | 1014.3 |
| 20260507051516 | 22 | 152 | 6.4 | 16.1 | 0.00 | 0.00 | 0.00 | 89 | 1014.6 |
| 20260507051004 | 22 | 188 | 6.4 | 17.7 | 0.00 | 0.00 | 0.00 | 89 | 1014.6 |
| 20260507050506 | 22 | 248 | 6.4 | 17.7 | 0.00 | 0.00 | 0.00 | 89 | 1014.6 |
| 20260507050016 | 22 | 234 | 6.4 | 14.5 | 0.00 | 0.00 | 0.00 | 89 | 1014.4 |
| 20260507045504 | 22 | 200 | 4.8 | 14.5 | 0.00 | 0.00 | 0.00 | 89 | 1014.2 |
| 20260507045005 | 22 | 186 | 6.4 | 17.7 | 0.00 | 0.00 | 0.00 | 89 | 1014.1 |
| 20260507044509 | 22 | 179 | 8.0 | 17.7 | 0.00 | 0.00 | 0.00 | 89 | 1014.3 |
| 20260507044008 | 22 | 209 | 8.0 | 17.7 | 0.00 | 0.00 | 0.00 | 88 | 1014.3 |
| 20260507043504 | 22 | 189 | 9.7 | 17.7 | 0.00 | 0.00 | 0.00 | 88 | 1014.3 |
| 20260507043014 | 22 | 184 | 8.0 | 17.7 | 0.00 | 0.00 | 0.00 | 88 | 1014.4 |
| 20260507042506 | 22 | 169 | 8.0 | 16.1 | 0.00 | 0.00 | 0.00 | 88 | 1014.5 |
| 20260507042012 | 22 | 151 | 8.0 | 17.7 | 0.00 | 0.00 | 0.00 | 88 | 1014.6 |
| 20260507041516 | 22 | 193 | 6.4 | 22.5 | 0.00 | 0.00 | 0.00 | 88 | 1014.5 |
| 20260507041004 | 22 | 158 | 8.0 | 22.5 | 0.00 | 0.00 | 0.00 | 88 | 1014.7 |
| 20260507040505 | 22 | 168 | 8.0 | 20.9 | 0.00 | 0.00 | 0.00 | 88 | 1014.6 |
| 20260507040016 | 22 | 243 | 8.0 | 20.9 | 0.00 | 0.00 | 0.00 | 88 | 1014.4 |
| 20260507035505 | 22 | 219 | 9.7 | 19.3 | 0.00 | 0.00 | 0.00 | 88 | 1014.5 |
| 20260507035004 | 22 | 276 | 8.0 | 20.9 | 0.00 | 0.00 | 0.00 | 88 | 1014.4 |
| 20260507034519 | 23 | 188 | 9.7 | 20.9 | 0.00 | 0.00 | 0.00 | 88 | 1014.4 |
| 20260507034004 | 22 | 188 | 11.3 | 19.3 | 0.00 | 0.00 | 0.00 | 88 | 1014.4 |
| 20260507033504 | 23 | 210 | 9.7 | 19.3 | 0.00 | 0.00 | 0.00 | 87 | 1014.3 |
| 20260507033018 | 23 | 182 | 8.0 | 24.1 | 0.00 | 0.00 | 0.00 | 87 | 1014.4 |
| 20260507032504 | 23 | 166 | 9.7 | 24.1 | 0.00 | 0.00 | 0.00 | 87 | 1014.2 |
| 20260507032004 | 23 | 176 | 11.3 | 25.7 | 0.00 | 0.00 | 0.00 | 87 | 1014.2 |
| 20260507031519 | 23 | 207 | 11.3 | 25.7 | 0.00 | 0.00 | 0.00 | 86 | 1014.1 |
| 20260507031005 | 23 | 167 | 9.7 | 32.2 | 0.00 | 0.00 | 0.00 | 86 | 1014.4 |
| 20260507030509 | 23 | 205 | 11.3 | 32.2 | 0.00 | 0.00 | 0.00 | 86 | 1014.3 |
| 20260507030019 | 23 | 186 | 11.3 | 30.6 | 0.00 | 0.00 | 0.00 | 86 | 1013.9 |
| 20260507025504 | 23 | 153 | 14.5 | 30.6 | 0.00 | 0.00 | 0.00 | 86 | 1013.7 |
| 20260507025007 | 23 | 137 | 19.3 | 30.6 | 0.00 | 0.00 | 0.00 | 86 | 1013.5 |
| 20260507024522 | 23 | 200 | 17.7 | 27.4 | 0.00 | 0.00 | 0.00 | 86 | 1013.5 |
| 20260507024008 | 23 | 186 | 11.3 | 25.7 | 0.00 | 0.00 | 0.00 | 86 | 1013.7 |
| 20260507023504 | 23 | 223 | 11.3 | 27.4 | 0.00 | 0.00 | 0.00 | 86 | 1013.8 |
| 20260507023020 | 23 | 191 | 14.5 | 27.4 | 0.00 | 0.00 | 0.00 | 86 | 1013.6 |
| 20260507022504 | 23 | 177 | 11.3 | 27.4 | 0.00 | 0.00 | 0.00 | 86 | 1013.5 |
| 20260507022005 | 23 | 183 | 14.5 | 29.0 | 0.00 | 0.00 | 0.00 | 86 | 1013.6 |
| 20260507021522 | 23 | 144 | 14.5 | 29.0 | 0.00 | 0.00 | 0.00 | 86 | 1013.6 |
| 20260507021010 | 23 | 166 | 16.1 | 27.4 | 0.00 | 0.00 | 0.00 | 86 | 1013.8 |
| 20260507020506 | 23 | 169 | 12.9 | 22.5 | 0.00 | 0.00 | 0.00 | 86 | 1013.8 |
| 20260507020021 | 22 | 195 | 14.5 | 22.5 | 0.00 | 0.00 | 0.00 | 85 | 1013.9 |
| 20260507015508 | 22 | 160 | 12.9 | 22.5 | 0.00 | 0.00 | 0.00 | 85 | 1014.1 |
| 20260507015006 | 22 | 212 | 9.7 | 19.3 | 0.00 | 0.00 | 0.00 | 86 | 1014.1 |
| 20260507014523 | 22 | 188 | 9.7 | 20.9 | 0.00 | 0.00 | 0.00 | 86 | 1014.1 |
| 20260507014009 | 22 | 194 | 12.9 | 20.9 | 0.00 | 0.00 | 0.00 | 86 | 1014.0 |
| 20260507013507 | 22 | 185 | 9.7 | 19.3 | 0.00 | 0.00 | 0.00 | 86 | 1014.1 |
| 20260507013033 | 22 | 207 | 9.7 | 17.7 | 0.00 | 0.00 | 0.00 | 86 | 1014.4 |
| 20260507012511 | 22 | 226 | 9.7 | 19.3 | 0.00 | 0.00 | 0.00 | 86 | 1014.2 |
| 20260507012008 | 22 | 162 | 12.9 | 19.3 | 0.00 | 0.00 | 0.00 | 86 | 1014.2 |
| 20260507011520 | 22 | 214 | 8.0 | 16.1 | 0.00 | 0.00 | 0.00 | 86 | 1014.4 |
| 20260507011004 | 22 | 158 | 8.0 | 16.1 | 0.00 | 0.00 | 0.00 | 86 | 1014.6 |
| 20260507010505 | 22 | 210 | 8.0 | 16.1 | 0.00 | 0.00 | 0.00 | 85 | 1014.6 |
| 20260507010016 | 22 | 219 | 4.8 | 16.1 | 0.00 | 0.00 | 0.00 | 85 | 1014.7 |
| 20260507005507 | 22 | 186 | 8.0 | 14.5 | 0.00 | 0.00 | 0.00 | 85 | 1014.6 |
| 20260507005006 | 22 | 198 | 8.0 | 12.9 | 0.00 | 0.00 | 0.00 | 85 | 1014.5 |
| 20260507004519 | 22 | 193 | 6.4 | 16.1 | 0.00 | 0.00 | 0.00 | 85 | 1014.7 |
| 20260507004007 | 22 | 154 | 8.0 | 16.1 | 0.00 | 0.00 | 0.00 | 85 | 1014.8 |
| 20260507003502 | 22 | 193 | 6.4 | 17.7 | 0.00 | 0.00 | 0.00 | 85 | 1014.7 |
| 20260507003007 | 22 | 188 | 6.4 | 17.7 | 0.00 | 0.00 | 0.00 | 85 | 1014.6 |
| 20260507002503 | 22 | 201 | 9.7 | 17.7 | 0.00 | 0.00 | 0.00 | 84 | 1014.4 |
| 20260507002003 | 22 | 175 | 9.7 | 22.5 | 0.00 | 0.00 | 0.00 | 84 | 1014.4 |
| 20260507001508 | 22 | 188 | 11.3 | 22.5 | 0.00 | 0.00 | 0.00 | 83 | 1014.4 |
| 20260507001006 | 22 | 191 | 11.3 | 24.1 | 0.00 | 0.00 | 0.00 | 83 | 1014.4 |
| 20260507000503 | 23 | 188 | 12.9 | 24.1 | 0.00 | 0.00 | 0.00 | 83 | 1014.4 |
| 20260507000012 | 23 | 176 | 14.5 | 22.5 | 0.00 | 0.00 | 0.00 | 83 | 1014.3 |
| 20260506235505 | 23 | 180 | 9.7 | 22.5 | 0.00 | 0.00 | 0.00 | 83 | 1014.5 |
| 20260506235002 | 23 | 200 | 12.9 | 20.9 | 0.00 | 0.00 | 0.00 | 83 | 1014.4 |
| 20260506234515 | 23 | 181 | 11.3 | 25.7 | 0.00 | 0.00 | 0.00 | 82 | 1014.5 |
| 20260506234007 | 23 | 205 | 11.3 | 25.7 | 0.00 | 0.00 | 0.00 | 82 | 1014.4 |
| 20260506233506 | 23 | 185 | 12.9 | 25.7 | 0.00 | 0.00 | 0.00 | 81 | 1014.4 |
| 20260506233020 | 23 | 161 | 12.9 | 25.7 | 0.00 | 0.00 | 0.00 | 81 | 1014.4 |
| 20260506232506 | 23 | 152 | 12.9 | 22.5 | 0.00 | 0.00 | 0.00 | 81 | 1014.4 |
| 20260506232013 | 23 | 271 | 9.7 | 22.5 | 0.00 | 0.00 | 0.00 | 80 | 1014.3 |
| 20260506231503 | 23 | 219 | 12.9 | 27.4 | 0.00 | 0.00 | 0.00 | 80 | 1014.3 |
| 20260506231002 | 23 | 191 | 12.9 | 27.4 | 0.00 | 0.00 | 0.00 | 79 | 1014.3 |
| 20260506230504 | 23 | 202 | 16.1 | 27.4 | 0.00 | 0.00 | 0.00 | 79 | 1014.2 |
| 20260506230006 | 23 | 217 | 14.5 | 27.4 | 0.00 | 0.00 | 0.00 | 79 | 1014.2 |
| 20260506225503 | 23 | 188 | 16.1 | 27.4 | 0.00 | 0.00 | 0.00 | 78 | 1014.2 |
| 20260506225005 | 23 | 195 | 17.7 | 27.4 | 0.00 | 0.00 | 0.00 | 78 | 1014.2 |
| 20260506224523 | 23 | 197 | 14.5 | 27.4 | 0.00 | 0.00 | 0.00 | 78 | 1014.3 |
| 20260506224007 | 23 | 196 | 12.9 | 25.7 | 0.00 | 0.00 | 0.00 | 78 | 1014.4 |
| 20260506223503 | 24 | 175 | 16.1 | 24.1 | 0.00 | 0.00 | 0.00 | 77 | 1014.5 |
| 20260506223016 | 24 | 205 | 9.7 | 25.7 | 0.00 | 0.00 | 0.00 | 77 | 1014.6 |
| 20260506222508 | 24 | 207 | 14.5 | 25.7 | 0.00 | 0.00 | 0.00 | 76 | 1014.6 |
| 20260506222007 | 24 | 183 | 12.9 | 27.4 | 0.00 | 0.00 | 0.00 | 76 | 1014.5 |
| 20260506221523 | 25 | 203 | 14.5 | 27.4 | 0.00 | 0.00 | 0.00 | 75 | 1014.5 |
| 20260506221006 | 25 | 211 | 16.1 | 27.4 | 0.00 | 0.00 | 0.00 | 75 | 1014.6 |
| 20260506220509 | 25 | 172 | 17.7 | 27.4 | 0.00 | 0.00 | 0.00 | 74 | 1014.4 |
| 20260506220006 | 25 | 183 | 16.1 | 32.2 | 0.00 | 0.00 | 0.00 | 74 | 1014.3 |
| 20260506215504 | 25 | 171 | 20.9 | 32.2 | 0.00 | 0.00 | 0.00 | 74 | 1014.4 |
| 20260506215005 | 25 | 177 | 22.5 | 32.2 | 0.00 | 0.00 | 0.00 | 73 | 1014.4 |
| 20260506214511 | 25 | 202 | 16.1 | 32.2 | 0.00 | 0.00 | 0.00 | 74 | 1014.4 |
| 20260506214004 | 25 | 165 | 19.3 | 32.2 | 0.00 | 0.00 | 0.00 | 75 | 1014.5 |
| 20260506213504 | 25 | 205 | 16.1 | 29.0 | 0.00 | 0.00 | 0.00 | 74 | 1014.7 |
| 20260506213020 | 25 | 174 | 22.5 | 29.0 | 0.00 | 0.00 | 0.00 | 73 | 1014.8 |
| 20260506212505 | 25 | 152 | 16.1 | 30.6 | 0.00 | 0.00 | 0.00 | 74 | 1014.7 |
| 20260506212008 | 25 | 164 | 19.3 | 30.6 | 0.00 | 0.00 | 0.00 | 73 | 1014.8 |
| 20260506211520 | 25 | 160 | 17.7 | 27.4 | 0.00 | 0.00 | 0.00 | 74 | 1014.9 |
| 20260506211008 | 25 | 184 | 17.7 | 29.0 | 0.00 | 0.00 | 0.00 | 72 | 1014.9 |
| 20260506210506 | 25 | 172 | 16.1 | 29.0 | 0.00 | 0.00 | 0.00 | 73 | 1014.9 |
| 20260506210026 | 26 | 172 | 16.1 | 30.6 | 0.00 | 0.00 | 0.00 | 74 | 1014.9 |
| 20260506205507 | 26 | 170 | 14.5 | 30.6 | 0.00 | 0.00 | 0.00 | 73 | 1015.1 |
| 20260506205009 | 25 | 189 | 14.5 | 29.0 | 0.00 | 0.00 | 0.00 | 74 | 1015.0 |
| 20260506204526 | 25 | 184 | 20.9 | 30.6 | 0.00 | 0.00 | 0.00 | 73 | 1015.1 |
| 20260506204003 | 25 | 193 | 16.1 | 33.8 | 0.00 | 0.00 | 0.00 | 73 | 1015.1 |
| 20260506203504 | 25 | 174 | 22.5 | 33.8 | 0.00 | 0.00 | 0.00 | 74 | 1015.0 |
| 20260506203012 | 26 | 185 | 16.1 | 29.0 | 0.00 | 0.00 | 0.00 | 74 | 1015.0 |
| 20260506202504 | 26 | 199 | 17.7 | 29.0 | 0.00 | 0.00 | 0.00 | 73 | 1015.2 |
| 20260506202004 | 25 | 184 | 20.9 | 30.6 | 0.00 | 0.00 | 0.00 | 74 | 1015.3 |
| 20260506201521 | 25 | 193 | 22.5 | 30.6 | 0.00 | 0.00 | 0.00 | 73 | 1015.3 |
| 20260506201005 | 26 | 181 | 16.1 | 30.6 | 0.00 | 0.00 | 0.00 | 73 | 1015.4 |
| 20260506200508 | 26 | 195 | 17.7 | 29.0 | 0.00 | 0.00 | 0.00 | 73 | 1015.5 |
| 20260506200025 | 26 | 169 | 14.5 | 24.1 | 0.00 | 0.00 | 0.00 | 72 | 1015.5 |
| 20260506195506 | 26 | 159 | 11.3 | 22.5 | 0.00 | 0.00 | 0.00 | 73 | 1015.5 |
| 20260506195011 | 26 | 202 | 12.9 | 29.0 | 0.00 | 0.00 | 0.00 | 74 | 1015.6 |
| 20260506194526 | 25 | 182 | 19.3 | 29.0 | 0.00 | 0.00 | 0.00 | 71 | 1015.6 |
| 20260506194009 | 26 | 201 | 12.9 | 27.4 | 0.00 | 0.00 | 0.00 | 73 | 1015.5 |
| 20260506193508 | 25 | 224 | 14.5 | 27.4 | 0.00 | 0.00 | 0.00 | 73 | 1015.6 |
| 20260506193028 | 25 | 176 | 14.5 | 29.0 | 0.00 | 0.00 | 0.00 | 73 | 1015.7 |
| 20260506192506 | 25 | 207 | 19.3 | 29.0 | 0.00 | 0.00 | 0.00 | 73 | 1015.7 |
| 20260506192004 | 26 | 185 | 19.3 | 27.4 | 0.00 | 0.00 | 0.00 | 73 | 1015.8 |
| 20260506191516 | 26 | 179 | 20.9 | 25.7 | 0.00 | 0.00 | 0.00 | 72 | 1015.9 |
| 20260506191007 | 26 | 246 | 11.3 | 24.1 | 0.00 | 0.00 | 0.00 | 72 | 1016.0 |
| 20260506190507 | 26 | 176 | 12.9 | 24.1 | 0.00 | 0.00 | 0.00 | 72 | 1016.0 |
| 20260506190029 | 26 | 160 | 12.9 | 20.9 | 0.00 | 0.00 | 0.00 | 71 | 1016.0 |
| 20260506185507 | 26 | 207 | 11.3 | 22.5 | 0.00 | 0.00 | 0.00 | 71 | 1016.1 |
| 20260506185007 | 26 | 211 | 9.7 | 22.5 | 0.00 | 0.00 | 0.00 | 72 | 1016.3 |
| 20260506184523 | 26 | 157 | 11.3 | 22.5 | 0.00 | 0.00 | 0.00 | 72 | 1016.3 |
| 20260506184008 | 26 | 151 | 14.5 | 25.7 | 0.00 | 0.00 | 0.00 | 72 | 1016.3 |
| 20260506183508 | 26 | 169 | 19.3 | 25.7 | 0.00 | 0.00 | 0.00 | 71 | 1016.4 |
| 20260506183023 | 26 | 204 | 11.3 | 22.5 | 0.00 | 0.00 | 0.00 | 71 | 1016.5 |
| 20260506182509 | 26 | 198 | 12.9 | 22.5 | 0.00 | 0.00 | 0.00 | 72 | 1016.4 |
| 20260506182019 | 26 | 166 | 8.0 | 22.5 | 0.00 | 0.00 | 0.00 | 71 | 1016.6 |
| 20260506181528 | 26 | 155 | 16.1 | 22.5 | 0.00 | 0.00 | 0.00 | 72 | 1016.6 |
| 20260506181009 | 26 | 184 | 14.5 | 22.5 | 0.00 | 0.00 | 0.00 | 72 | 1016.6 |
| 20260506180505 | 25 | 195 | 16.1 | 22.5 | 0.00 | 0.00 | 0.00 | 73 | 1016.6 |
| 20260506180016 | 25 | 155 | 12.9 | 22.5 | 0.00 | 0.00 | 0.00 | 73 | 1016.7 |
| 20260506175507 | 26 | 174 | 12.9 | 22.5 | 0.00 | 0.00 | 0.00 | 73 | 1016.8 |
| 20260506175004 | 25 | 168 | 12.9 | 20.9 | 0.00 | 0.00 | 0.00 | 74 | 1016.9 |
| 20260506174520 | 25 | 172 | 11.3 | 22.5 | 0.00 | 0.00 | 0.00 | 74 | 1017.0 |
| 20260506174008 | 25 | 194 | 14.5 | 22.5 | 0.00 | 0.00 | 0.00 | 73 | 1017.1 |
| 20260506173507 | 25 | 146 | 12.9 | 20.9 | 0.00 | 0.00 | 0.00 | 73 | 1017.1 |
| 20260506173027 | 25 | 188 | 11.3 | 19.3 | 0.00 | 0.00 | 0.00 | 74 | 1017.2 |
| 20260506172507 | 25 | 231 | 11.3 | 20.9 | 0.00 | 0.00 | 0.00 | 75 | 1017.2 |
| 20260506172010 | 25 | 224 | 11.3 | 20.9 | 0.00 | 0.00 | 0.00 | 74 | 1017.2 |
| 20260506171525 | 25 | 193 | 6.4 | 20.9 | 0.00 | 0.00 | 0.00 | 76 | 1017.3 |
| 20260506171010 | 25 | 185 | 12.9 | 20.9 | 0.00 | 0.00 | 0.00 | 76 | 1017.4 |
| 20260506170516 | 25 | 174 | 8.0 | 16.1 | 0.00 | 0.00 | 0.00 | 77 | 1017.4 |
| 20260506170027 | 25 | 179 | 8.0 | 17.7 | 0.00 | 0.00 | 0.00 | 76 | 1017.5 |
| 20260506165510 | 25 | 200 | 9.7 | 20.9 | 0.00 | 0.00 | 0.00 | 76 | 1017.6 |
| 20260506165005 | 25 | 172 | 12.9 | 20.9 | 0.00 | 0.00 | 0.00 | 76 | 1017.6 |
| 20260506164516 | 25 | 207 | 11.3 | 20.9 | 0.00 | 0.00 | 0.00 | 76 | 1017.6 |
| 20260506164007 | 25 | 195 | 12.9 | 22.5 | 0.00 | 0.00 | 0.00 | 75 | 1017.4 |
| 20260506163509 | 25 | 197 | 11.3 | 22.5 | 0.00 | 0.00 | 0.00 | 76 | 1017.4 |
| 20260506163039 | 25 | 190 | 14.5 | 20.9 | 0.00 | 0.00 | 0.00 | 75 | 1017.4 |
| 20260506162507 | 25 | 168 | 11.3 | 19.3 | 0.00 | 0.00 | 0.00 | 75 | 1017.6 |
| 20260506162012 | 25 | 224 | 11.3 | 17.7 | 0.00 | 0.00 | 0.00 | 73 | 1017.6 |
| 20260506161504 | 25 | 176 | 8.0 | 19.3 | 0.00 | 0.00 | 0.00 | 72 | 1017.5 |
| 20260506161002 | 25 | 180 | 11.3 | 19.3 | 0.00 | 0.00 | 0.00 | 71 | 1017.4 |
| 20260506160506 | 25 | 156 | 9.7 | 19.3 | 0.00 | 0.00 | 0.00 | 73 | 1017.5 |
| 20260506160008 | 25 | 212 | 9.7 | 19.3 | 0.00 | 0.00 | 0.00 | 74 | 1017.6 |
| 20260506155504 | 25 | 143 | 9.7 | 19.3 | 0.00 | 0.00 | 0.00 | 74 | 1017.7 |
| 20260506155007 | 25 | 198 | 11.3 | 19.3 | 0.00 | 0.00 | 0.00 | 75 | 1017.7 |
| 20260506154528 | 25 | 162 | 8.0 | 16.1 | 0.00 | 0.00 | 0.00 | 77 | 1017.8 |
| 20260506154006 | 24 | 184 | 8.0 | 14.5 | 0.00 | 0.00 | 0.00 | 76 | 1017.8 |
| 20260506153505 | 25 | 176 | 8.0 | 17.7 | 0.00 | 0.00 | 0.00 | 75 | 1017.7 |
| 20260506153022 | 25 | 236 | 9.7 | 17.7 | 0.00 | 0.00 | 0.00 | 75 | 1017.7 |
| 20260506152510 | 25 | 248 | 9.7 | 22.5 | 0.00 | 0.00 | 0.00 | 76 | 1017.7 |
| 20260506152014 | 25 | 161 | 9.7 | 22.5 | 0.00 | 0.00 | 0.00 | 75 | 1017.7 |
| 20260506151504 | 25 | 223 | 6.4 | 12.9 | 0.00 | 0.00 | 0.00 | 76 | 1017.8 |
| 20260506151002 | 25 | 169 | 6.4 | 14.5 | 0.00 | 0.00 | 0.00 | 76 | 1017.8 |
| 20260506150504 | 25 | 160 | 8.0 | 17.7 | 0.00 | 0.00 | 0.00 | 77 | 1017.7 |
| 20260506150008 | 25 | 207 | 8.0 | 17.7 | 0.00 | 0.00 | 0.00 | 76 | 1017.7 |
| 20260506145505 | 25 | 191 | 9.7 | 17.7 | 0.00 | 0.00 | 0.00 | 75 | 1017.7 |
| 20260506145005 | 25 | 208 | 8.0 | 19.3 | 0.00 | 0.00 | 0.00 | 74 | 1017.7 |
| 20260506144511 | 25 | 172 | 9.7 | 19.3 | 0.00 | 0.00 | 0.00 | 75 | 1017.6 |
| 20260506144009 | 25 | 200 | 9.7 | 17.7 | 0.00 | 0.00 | 0.00 | 76 | 1017.5 |
| 20260506143507 | 24 | 210 | 9.7 | 17.7 | 0.00 | 0.00 | 0.00 | 77 | 1017.5 |
| 20260506143018 | 24 | 184 | 8.0 | 20.9 | 0.00 | 0.00 | 0.00 | 77 | 1017.4 |
| 20260506142505 | 24 | 154 | 9.7 | 20.9 | 0.00 | 0.00 | 0.00 | 77 | 1017.4 |
| 20260506142004 | 23 | 185 | 9.7 | 19.3 | 0.00 | 0.00 | 0.00 | 78 | 1017.3 |
| 20260506141521 | 23 | 174 | 8.0 | 19.3 | 0.00 | 0.00 | 0.00 | 79 | 1017.2 |
| 20260506141012 | 23 | 254 | 9.7 | 16.1 | 0.00 | 0.00 | 0.00 | 78 | 1017.3 |
| 20260506140508 | 23 | 186 | 6.4 | 16.1 | 0.00 | 0.00 | 0.00 | 79 | 1017.4 |
| 20260506140008 | 23 | 155 | 6.4 | 16.1 | 0.00 | 0.00 | 0.00 | 78 | 1017.3 |
| 20260506135503 | 23 | 199 | 9.7 | 16.1 | 0.00 | 0.00 | 0.00 | 78 | 1017.3 |
| 20260506135003 | 23 | 228 | 6.4 | 17.7 | 0.00 | 0.00 | 0.00 | 78 | 1017.2 |
| 20260506134508 | 23 | 223 | 8.0 | 20.9 | 0.00 | 0.00 | 0.00 | 78 | 1017.1 |
| 20260506134007 | 23 | 224 | 8.0 | 20.9 | 0.00 | 0.00 | 0.00 | 78 | 1017.0 |
| 20260506133505 | 23 | 167 | 8.0 | 17.7 | 0.00 | 0.00 | 0.00 | 77 | 1017.1 |
| 20260506133010 | 23 | 193 | 6.4 | 19.3 | 0.00 | 0.00 | 0.00 | 77 | 1017.1 |
| 20260506132508 | 23 | 217 | 6.4 | 19.3 | 0.00 | 0.00 | 0.00 | 77 | 1016.9 |
| 20260506132006 | 24 | 210 | 8.0 | 17.7 | 0.00 | 0.00 | 0.00 | 77 | 1017.0 |
| 20260506131519 | 24 | 228 | 6.4 | 17.7 | 0.00 | 0.00 | 0.00 | 78 | 1016.8 |
| 20260506131007 | 23 | 248 | 8.0 | 17.7 | 0.00 | 0.00 | 0.00 | 78 | 1016.8 |
| 20260506130510 | 23 | 137 | 8.0 | 17.7 | 0.00 | 0.00 | 0.00 | 78 | 1016.7 |
| 20260506130024 | 23 | 146 | 8.0 | 17.7 | 0.00 | 0.00 | 0.00 | 78 | 1016.9 |
| 20260506125508 | 23 | 203 | 6.4 | 14.5 | 0.00 | 0.00 | 0.00 | 78 | 1016.8 |
| 20260506125008 | 23 | 181 | 4.8 | 14.5 | 0.00 | 0.00 | 0.00 | 79 | 1016.9 |
| 20260506124525 | 23 | 249 | 3.2 | 14.5 | 0.00 | 0.00 | 0.00 | 80 | 1017.0 |
| 20260506124006 | 23 | 214 | 6.4 | 14.5 | 0.00 | 0.00 | 0.00 | 81 | 1016.8 |
| 20260506123504 | 23 | 206 | 8.0 | 14.5 | 0.00 | 0.00 | 0.00 | 81 | 1016.7 |
| 20260506123010 | 23 | 196 | 8.0 | 16.1 | 0.00 | 0.00 | 0.00 | 81 | 1016.8 |
| 20260506122506 | 22 | 155 | 8.0 | 16.1 | 0.00 | 0.00 | 0.00 | 82 | 1016.8 |
| 20260506122005 | 22 | 183 | 6.4 | 16.1 | 0.00 | 0.00 | 0.00 | 83 | 1016.8 |
| 20260506121516 | 22 | 234 | 9.7 | 17.7 | 0.00 | 0.00 | 0.00 | 82 | 1016.8 |
| 20260506121007 | 22 | 175 | 6.4 | 17.7 | 0.00 | 0.00 | 0.00 | 84 | 1016.7 |
| 20260506120506 | 22 | 165 | 6.4 | 14.5 | 0.00 | 0.00 | 0.00 | 85 | 1016.5 |
| 20260506120018 | 22 | 210 | 8.0 | 14.5 | 0.00 | 0.00 | 0.00 | 86 | 1016.5 |
| 20260506115508 | 21 | 186 | 9.7 | 14.5 | 0.00 | 0.00 | 0.00 | 86 | 1016.5 |
| 20260506115008 | 21 | 190 | 8.0 | 14.5 | 0.00 | 0.00 | 0.00 | 87 | 1016.4 |
| 20260506114525 | 21 | 185 | 4.8 | 9.7 | 0.00 | 0.00 | 0.00 | 89 | 1016.4 |
| 20260506114008 | 21 | 193 | 4.8 | 11.3 | 0.00 | 0.00 | 0.00 | 89 | 1016.4 |
| 20260506113507 | 21 | 180 | 4.8 | 11.3 | 0.00 | 0.00 | 0.00 | 90 | 1016.2 |
| 20260506113028 | 20 | 185 | 6.4 | 9.7 | 0.00 | 0.00 | 0.00 | 90 | 1016.1 |
| 20260506112504 | 20 | 166 | 6.4 | 9.7 | 0.00 | 0.00 | 0.00 | 91 | 1016.2 |
| 20260506112004 | 20 | 171 | 6.4 | 9.7 | 0.00 | 0.00 | 0.00 | 91 | 1016.2 |
| 20260506111524 | 20 | 184 | 4.8 | 8.0 | 0.00 | 0.00 | 0.00 | 91 | 1016.2 |
| 20260506111005 | 20 | 209 | 1.6 | 6.4 | 0.00 | 0.00 | 0.00 | 91 | 1016.4 |
| 20260506110505 | 19 | 212 | 3.2 | 6.4 | 0.00 | 0.00 | 0.00 | 92 | 1016.3 |
| 20260506110014 | 19 | 175 | 1.6 | 4.8 | 0.00 | 0.00 | 0.00 | 92 | 1016.3 |
| 20260506105508 | 18 | 193 | 3.2 | 4.8 | 0.00 | 0.00 | 0.00 | 92 | 1016.3 |
| 20260506105011 | 18 | 202 | 1.6 | 4.8 | 0.00 | 0.00 | 0.00 | 92 | 1016.3 |
| 20260506104520 | 18 | 201 | 1.6 | 4.8 | 0.00 | 0.00 | 0.00 | 92 | 1016.2 |
| 20260506104008 | 18 | 192 | 1.6 | 4.8 | 0.00 | 0.00 | 0.00 | 92 | 1016.1 |
| 20260506103507 | 18 | 198 | 1.6 | 4.8 | 0.00 | 0.00 | 0.00 | 92 | 1016.0 |
| 20260506103026 | 18 | 203 | 0.0 | 6.4 | 0.00 | 0.00 | 0.00 | 92 | 1016.0 |
| 20260506102507 | 18 | 201 | 3.2 | 6.4 | 0.00 | 0.00 | 0.00 | 92 | 1015.9 |
| 20260506102010 | 18 | 188 | 1.6 | 4.8 | 0.00 | 0.00 | 0.00 | 91 | 1015.9 |
| 20260506101526 | 18 | 182 | 1.6 | 4.8 | 0.00 | 0.00 | 0.00 | 91 | 1015.9 |
| 20260506101008 | 18 | 181 | 0.0 | 4.8 | 0.00 | 0.00 | 0.00 | 91 | 1016.0 |
| 20260506100504 | 18 | 195 | 1.6 | 4.8 | 0.00 | 0.00 | 0.00 | 91 | 1016.0 |
| 20260506100013 | 18 | 224 | 0.0 | 3.2 | 0.00 | 0.00 | 0.00 | 91 | 1016.0 |
| 20260506095507 | 18 | 190 | 1.6 | 4.8 | 0.00 | 0.00 | 0.00 | 91 | 1016.0 |
| 20260506095009 | 18 | 158 | 0.0 | 4.8 | 0.00 | 0.00 | 0.00 | 91 | 1016.0 |
| 20260506094521 | 18 | 244 | 0.0 | 6.4 | 0.00 | 0.00 | 0.00 | 90 | 1016.0 |
| 20260506094008 | 18 | 205 | 1.6 | 8.0 | 0.00 | 0.00 | 0.00 | 90 | 1015.9 |
| 20260506093507 | 18 | 178 | 3.2 | 8.0 | 0.00 | 0.00 | 0.00 | 90 | 1015.8 |
| 20260506093024 | 18 | 195 | 1.6 | 8.0 | 0.00 | 0.00 | 0.00 | 90 | 1015.9 |
| 20260506092506 | 18 | 199 | 1.6 | 8.0 | 0.00 | 0.00 | 0.00 | 90 | 1016.0 |
| 20260506092011 | 18 | 212 | 1.6 | 6.4 | 0.00 | 0.00 | 0.00 | 90 | 1016.0 |
| 20260506091527 | 18 | 217 | 1.6 | 8.0 | 0.00 | 0.00 | 0.00 | 90 | 1015.9 |
| 20260506091012 | 18 | 231 | 1.6 | 8.0 | 0.00 | 0.00 | 0.00 | 90 | 1015.9 |
| 20260506090509 | 18 | 196 | 4.8 | 6.4 | 0.00 | 0.00 | 0.00 | 90 | 1015.8 |
| 20260506090028 | 18 | 182 | 4.8 | 6.4 | 0.00 | 0.00 | 0.00 | 90 | 1015.7 |
| 20260506085510 | 18 | 188 | 3.2 | 4.8 | 0.00 | 0.00 | 0.00 | 89 | 1015.9 |
| 20260506085005 | 18 | 205 | 1.6 | 6.4 | 0.00 | 0.00 | 0.00 | 89 | 1015.9 |
| 20260506084519 | 18 | 181 | 4.8 | 6.4 | 0.00 | 0.00 | 0.00 | 89 | 1015.7 |
| 20260506084006 | 18 | 199 | 1.6 | 6.4 | 0.00 | 0.00 | 0.00 | 88 | 1015.9 |
| 20260506083508 | 18 | 172 | 4.8 | 6.4 | 0.00 | 0.00 | 0.00 | 88 | 1015.9 |
| 20260506083025 | 18 | 206 | 1.6 | 6.4 | 0.00 | 0.00 | 0.00 | 88 | 1016.0 |
| 20260506082507 | 18 | 189 | 1.6 | 8.0 | 0.00 | 0.00 | 0.00 | 88 | 1016.0 |
| 20260506082011 | 19 | 194 | 3.2 | 9.7 | 0.00 | 0.00 | 0.00 | 88 | 1015.9 |
| 20260506081523 | 19 | 210 | 4.8 | 11.3 | 0.00 | 0.00 | 0.00 | 88 | 1015.8 |
| 20260506081011 | 19 | 203 | 6.4 | 11.3 | 0.00 | 0.00 | 0.00 | 87 | 1015.7 |
| 20260506080508 | 19 | 184 | 4.8 | 11.3 | 0.00 | 0.00 | 0.00 | 87 | 1015.8 |
| 20260506073514 | 19 | 196 | 8.0 | 11.3 | 0.00 | 0.00 | 0.00 | 87 | 1015.9 |
| 20260506073016 | 19 | 192 | 6.4 | 9.7 | 0.00 | 0.00 | 0.00 | 87 | 1015.9 |
| 20260506072506 | 19 | 238 | 4.8 | 11.3 | 0.00 | 0.00 | 0.00 | 86 | 1015.9 |
| 20260506072008 | 19 | 185 | 4.8 | 11.3 | 0.00 | 0.00 | 0.00 | 86 | 1015.7 |
| 20260506071504 | 19 | 187 | 8.0 | 12.9 | 0.00 | 0.00 | 0.00 | 86 | 1015.6 |
| 20260506071002 | 19 | 204 | 6.4 | 12.9 | 0.00 | 0.00 | 0.00 | 86 | 1015.8 |
| 20260506070503 | 19 | 206 | 9.7 | 12.9 | 0.00 | 0.00 | 0.00 | 86 | 1015.6 |